When you browse on this site, cookies collect data to enhance your experience and personalize the content and advertising you see.
Visit our Privacy Policy to learn more. By continuing to use the site, you agree to this use of cookies and data.
  • In Hungary
  • List of Countries
  • For 7 days
  • Water Temperature
  • Satellite Maps
  • Weather Map
  • News
  • Weather Widgets
  • user-avatar
    Login

    Hourly Weather Verona

    Today, 25 March, Monday

    Time Temperature Precipitation Wind Pressure Humidity
    00:00 +15°C° 0 mm 1 mps 757 mmHg 61%
    01:00 +15°C° 0 mm 1 mps 757 mmHg 62%
    02:00 +14°C° 0 mm 1 mps 757 mmHg 63%
    03:00 +14°C° 0 mm 1 mps 756 mmHg 63%
    04:00 +13°C° 0 mm 1 mps 756 mmHg 63%
    05:00 +13°C° 0 mm 1 mps 756 mmHg 63%
    06:00 +13°C° 0 mm 1 mps 755 mmHg 63%
    07:00 +13°C° 0 mm 1 mps 755 mmHg 62%
    08:00 +15°C° 0 mm 1 mps 755 mmHg 57%
    09:00 +16°C° 0 mm 1 mps 754 mmHg 52%
    10:00 +19°C° 0 mm 1 mps 754 mmHg 47%
    11:00 +19°C° 0 mm 2 mps 753 mmHg 46%
    12:00 +20°C° 0 mm 2 mps 753 mmHg 44%
    13:00 +20°C° 0 mm 3 mps 752 mmHg 43%
    14:00 +20°C° 0 mm 3 mps 752 mmHg 44%
    15:00 +21°C° 0 mm 3 mps 751 mmHg 45%
    16:00 +21°C° 0 mm 3 mps 750 mmHg 46%
    17:00 +19°C° 0.2 mm 2 mps 751 mmHg 51%
    18:00 +19°C° 0.2 mm 1 mps 751 mmHg 56%
    19:00 +16°C° 0.2 mm 1 mps 751 mmHg 62%
    20:00 +16°C° 1.2 mm 3 mps 752 mmHg 63%
    21:00 +14°C° 1.2 mm 6 mps 753 mmHg 64%
    22:00 +12°C° 1.2 mm 9 mps 754 mmHg 65%
    23:00 +10°C° 0.1 mm 8 mps 755 mmHg 66%

    Tomorrow, 26 March, Tuesday

    Time Temperature Precipitation Wind Pressure Humidity
    00:00 +9°C° 0.1 mm 7 mps 757 mmHg 67%
    01:00 +8°C° 0.1 mm 6 mps 758 mmHg 68%
    02:00 +8°C° 0.5 mm 4 mps 759 mmHg 67%
    03:00 +8°C° 0.5 mm 3 mps 760 mmHg 67%
    04:00 +9°C° 0.5 mm 1 mps 760 mmHg 66%
    05:00 +9°C° 0.1 mm 1 mps 760 mmHg 63%
    06:00 +9°C° 0.1 mm 1 mps 761 mmHg 61%
    07:00 +9°C° 0.1 mm 1 mps 761 mmHg 58%
    08:00 +9°C° 0 mm 2 mps 761 mmHg 49%
    09:00 +12°C° 0 mm 2 mps 761 mmHg 39%
    10:00 +13°C° 0 mm 2 mps 761 mmHg 29%
    11:00 +13°C° 0 mm 3 mps 761 mmHg 27%
    12:00 +14°C° 0 mm 3 mps 761 mmHg 24%
    13:00 +16°C° 0 mm 3 mps 761 mmHg 22%
    14:00 +16°C° 0 mm 3 mps 760 mmHg 23%
    15:00 +16°C° 0 mm 3 mps 760 mmHg 24%
    16:00 +16°C° 0 mm 3 mps 760 mmHg 25%
    17:00 +14°C° 0 mm 3 mps 760 mmHg 29%
    18:00 +13°C° 0 mm 2 mps 761 mmHg 34%
    19:00 +12°C° 0 mm 1 mps 761 mmHg 39%
    20:00 +11°C° 0 mm 1 mps 762 mmHg 39%
    21:00 +11°C° 0 mm 1 mps 763 mmHg 39%
    22:00 +10°C° 0 mm 1 mps 763 mmHg 40%
    23:00 +10°C° 0 mm 1 mps 763 mmHg 41%

    Day after tomorrow, 27 March, Wednesday

    Time Temperature Precipitation Wind Pressure Humidity
    00:00 +10°C° 0 mm 1 mps 764 mmHg 42%
    01:00 +9°C° 0 mm 1 mps 764 mmHg 44%
    02:00 +9°C° 0 mm 1 mps 764 mmHg 46%
    03:00 +8°C° 0 mm 1 mps 764 mmHg 49%
    04:00 +8°C° 0 mm 1 mps 763 mmHg 51%
    05:00 +8°C° 0 mm 1 mps 764 mmHg 52%
    06:00 +8°C° 0 mm 1 mps 764 mmHg 53%
    07:00 +8°C° 0 mm 1 mps 764 mmHg 54%
    08:00 +9°C° 0 mm 1 mps 764 mmHg 53%
    09:00 +9°C° 0 mm 2 mps 764 mmHg 52%
    10:00 +10°C° 0 mm 2 mps 764 mmHg 51%
    11:00 +12°C° 0 mm 2 mps 764 mmHg 49%
    12:00 +13°C° 0 mm 2 mps 764 mmHg 47%
    13:00 +13°C° 0 mm 2 mps 764 mmHg 45%
    14:00 +14°C° 0 mm 2 mps 764 mmHg 46%
    15:00 +14°C° 0 mm 2 mps 763 mmHg 46%
    16:00 +14°C° 0 mm 2 mps 763 mmHg 46%
    17:00 +13°C° 0 mm 2 mps 764 mmHg 49%
    18:00 +12°C° 0 mm 2 mps 764 mmHg 52%
    19:00 +10°C° 0 mm 1 mps 765 mmHg 55%
    20:00 +10°C° 0 mm 1 mps 765 mmHg 56%
    21:00 +10°C° 0 mm 1 mps 766 mmHg 58%
    22:00 +8°C° 0 mm 2 mps 767 mmHg 59%
    23:00 +8°C° 0 mm 2 mps 767 mmHg 60%

    28 March, Thursday

    Time Temperature Precipitation Wind Pressure Humidity
    00:00 +9°C° 0 mm 1 mps 767 mmHg 61%
    01:00 +9°C° 0 mm 1 mps 767 mmHg 61%
    02:00 +8°C° 0 mm 1 mps 767 mmHg 63%
    03:00 +8°C° 0 mm 1 mps 767 mmHg 64%
    04:00 +8°C° 0 mm 1 mps 767 mmHg 65%
    05:00 +8°C° 0 mm 1 mps 767 mmHg 65%
    06:00 +8°C° 0 mm 1 mps 767 mmHg 66%
    07:00 +8°C° 0 mm 1 mps 767 mmHg 66%
    08:00 +9°C° 0 mm 1 mps 767 mmHg 60%
    09:00 +11°C° 0 mm 1 mps 767 mmHg 55%
    10:00 +13°C° 0 mm 1 mps 767 mmHg 49%
    11:00 +14°C° 0 mm 1 mps 767 mmHg 47%
    12:00 +14°C° 0 mm 2 mps 766 mmHg 45%
    13:00 +15°C° 0 mm 2 mps 766 mmHg 44%
    14:00 +15°C° 0 mm 2 mps 766 mmHg 43%
    15:00 +15°C° 0 mm 2 mps 766 mmHg 42%
    16:00 +15°C° 0 mm 2 mps 765 mmHg 41%
    17:00 +14°C° 0 mm 1 mps 766 mmHg 44%
    18:00 +13°C° 0 mm 1 mps 766 mmHg 47%
    19:00 +11°C° 0 mm 0 mps 767 mmHg 50%
    20:00 +11°C° 0 mm 1 mps 767 mmHg 51%
    21:00 +11°C° 0 mm 1 mps 768 mmHg 52%
    22:00 +10°C° 0 mm 2 mps 768 mmHg 53%
    23:00 +10°C° 0 mm 2 mps 768 mmHg 55%

    29 March, Friday

    Time Temperature Precipitation Wind Pressure Humidity
    00:00 +9°C° 0 mm 2 mps 768 mmHg 56%
    01:00 +9°C° 0 mm 2 mps 769 mmHg 58%
    02:00 +9°C° 0 mm 2 mps 769 mmHg 59%
    03:00 +10°C° 0 mm 1 mps 769 mmHg 61%
    04:00 +9°C° 0 mm 1 mps 769 mmHg 63%
    05:00 +9°C° 0 mm 1 mps 769 mmHg 64%
    06:00 +9°C° 0 mm 1 mps 769 mmHg 64%
    07:00 +9°C° 0 mm 1 mps 769 mmHg 64%
    08:00 +11°C° 0 mm 1 mps 769 mmHg 59%
    09:00 +13°C° 0 mm 1 mps 769 mmHg 53%
    10:00 +14°C° 0 mm 1 mps 768 mmHg 47%
    11:00 +15°C° 0 mm 1 mps 768 mmHg 46%
    12:00 +16°C° 0 mm 2 mps 768 mmHg 44%
    13:00 +17°C° 0 mm 2 mps 767 mmHg 42%
    14:00 +17°C° 0 mm 2 mps 767 mmHg 41%
    15:00 +17°C° 0 mm 2 mps 766 mmHg 41%
    16:00 +17°C° 0 mm 2 mps 766 mmHg 40%
    17:00 +15°C° 0 mm 1 mps 766 mmHg 43%
    18:00 +14°C° 0 mm 1 mps 766 mmHg 47%
    19:00 +12°C° 0 mm 0 mps 766 mmHg 50%
    20:00 +12°C° 0 mm 1 mps 767 mmHg 52%
    21:00 +12°C° 0 mm 1 mps 767 mmHg 53%
    22:00 +11°C° 0 mm 1 mps 768 mmHg 54%
    23:00 +11°C° 0 mm 1 mps 767 mmHg 57%

    30 March, Saturday

    Time Temperature Precipitation Wind Pressure Humidity
    00:00 +11°C° 0 mm 1 mps 767 mmHg 59%
    01:00 +10°C° 0 mm 1 mps 767 mmHg 62%
    02:00 +10°C° 0 mm 1 mps 767 mmHg 64%
    03:00 +10°C° 0 mm 1 mps 767 mmHg 66%
    04:00 +10°C° 0 mm 1 mps 767 mmHg 68%
    05:00 +10°C° 0 mm 1 mps 767 mmHg 68%
    06:00 +10°C° 0 mm 1 mps 767 mmHg 69%
    07:00 +10°C° 0 mm 1 mps 766 mmHg 69%
    08:00 +12°C° 0 mm 1 mps 766 mmHg 63%
    09:00 +14°C° 0 mm 1 mps 766 mmHg 57%
    10:00 +15°C° 0 mm 1 mps 765 mmHg 51%
    11:00 +16°C° 0 mm 1 mps 765 mmHg 49%
    12:00 +17°C° 0 mm 2 mps 764 mmHg 46%
    13:00 +18°C° 0 mm 2 mps 764 mmHg 44%
    14:00 +18°C° 0 mm 2 mps 763 mmHg 44%
    15:00 +18°C° 0 mm 2 mps 763 mmHg 44%
    16:00 +19°C° 0 mm 2 mps 762 mmHg 45%
    17:00 +18°C° 0 mm 1 mps 762 mmHg 50%
    18:00 +16°C° 0 mm 1 mps 762 mmHg 55%
    19:00 +14°C° 0 mm 1 mps 762 mmHg 61%
    20:00 +14°C° 0 mm 1 mps 763 mmHg 63%
    21:00 +13°C° 0 mm 1 mps 763 mmHg 66%
    22:00 +13°C° 0 mm 1 mps 763 mmHg 68%
    23:00 +12°C° 0 mm 1 mps 763 mmHg 70%
    Show more